#timestamp,LO_Frequency,Hit,StdDev 
1625688015.7,286046998.2,N
1625688035.6,286046998.9,N
1625688055.4,286046999.4,N
1625688075.3,286046997.6,N
1625688095.1,286046997.5,N
1625688115.9,286046997.0,N
1625688135.7,286046998.0,N
1625688155.5,286046994.9,N
1625688175.4,286046997.7,N
1625688195.2,286046996.7,N
1625688215.0,286046996.5,N
1625688215.9,286046996.5,N
1625688235.8,286046997.3,N
1625688255.6,286046997.9,N
1625688275.5,286046997.6,N
1625688295.3,286046998.0,N
1625688315.1,286046997.7,N
1625688335.9,286046997.0,N
1625688355.7,286046999.6,N
1625688375.5,286046999.1,N
1625688395.4,286046999.5,N
1625688415.2,286046999.3,N
1625688435.1,286046996.7,Y
1625688436.0,286046996.7,P
1625688455.8,286047001.2,N
1625688475.6,286046998.4,N
1625688495.5,286046998.7,N
1625688515.3,286046998.6,N
1625688535.1,286047001.2,N
1625688555.9,286047000.8,N
1625688575.7,286047001.0,N
1625688595.6,286046998.2,N
1625688615.4,286046999.0,N
1625688635.2,286046999.6,N
1625688655.1,286046999.0,N
1625688656.0,286046999.0,N
1625688675.8,286047000.0,N
1625688695.6,286047001.0,N
1625688715.5,286047001.0,N
1625688735.3,286047000.5,N
1625688755.1,286047000.2,N
1625688775.9,286046999.9,N
1625688795.7,286047000.0,N
1625688815.6,286047000.1,N
1625688835.4,286047002.6,N
1625688855.2,286047002.1,N
1625688875.1,286047002.8,N
1625688876.0,286047002.8,N
1625688895.8,286047002.3,N
1625688915.7,286046998.6,N
1625688935.5,286046998.1,N
1625688955.3,286047001.2,N
1625688975.2,286046998.3,N
1625688995.0,286046996.6,N
1625688995.9,286046996.6,N
1625689015.7,286046999.3,N
1625689035.6,286046999.4,N
1625689055.4,286046999.1,N
1625689075.3,286046999.1,N
1625689095.1,286046997.5,N
1625689096.0,286046997.5,N
1625689115.8,286046997.9,N
1625689135.7,286046995.0,N
1625689155.5,286046995.7,N
1625689175.4,286046995.1,N
1625689195.2,286046996.4,N
1625689215.0,286046995.0,N
1625689215.9,286046995.0,N
1625689235.8,286046997.6,N
1625689255.6,286046997.8,N
1625689275.4,286046996.5,N
1625689295.3,286046999.6,N
1625689315.1,286046996.8,N
1625689335.9,286046997.3,N
1625689355.7,286046995.3,N
1625689375.5,286046995.1,N
1625689395.4,286046997.5,N
1625689415.2,286046995.3,N
1625689435.0,286046995.1,N
1625689435.9,286046995.1,N
1625689455.8,286046996.1,N
1625689475.6,286046995.8,N
1625689495.5,286046997.4,N
1625689515.3,286046998.0,N
1625689535.1,286046997.6,N
1625689555.9,286046998.0,N
1625689575.7,286046996.9,N
1625689595.5,286046997.5,N
1625689615.4,286046995.0,Y
1625689635.2,286046998.4,P
1625689655.1,286047000.8,N
1625689656.0,286047000.8,N
1625689675.8,286047001.1,N
1625689695.6,286047000.2,N
1625689715.5,286046999.9,N
1625689735.3,286046999.7,N
1625689755.2,286047001.1,N
1625689775.9,286047000.8,N
1625689795.7,286046998.5,N
1625689815.6,286047000.7,N
1625689835.4,286047001.0,N
1625689855.2,286046999.9,N
1625689875.1,286047000.1,N
1625689876.0,286047000.1,N
1625689895.8,286047000.2,N
1625689915.7,286047002.7,N
1625689935.5,286047000.5,N
1625689955.3,286047000.2,N
1625689975.2,286047000.9,N
1625689995.0,286047000.3,N
1625689995.9,286047000.3,N
1625690015.7,286047000.0,N
1625690035.6,286047001.1,N
1625690055.4,286047000.0,N
1625690075.3,286047000.3,N
1625690095.1,286046999.9,N
1625690115.8,286047002.0,N
1625690135.7,286047002.3,N
1625690155.5,286047002.5,N
1625690175.4,286047002.7,N
1625690195.2,286047002.6,N
1625690215.0,286047002.7,N
1625690215.9,286047002.7,N
1625690235.8,286047001.4,N
1625690255.6,286047002.2,N
1625690275.4,286046999.9,N
1625690295.3,286047000.0,N
1625690315.1,286046998.5,N
1625690335.9,286047000.0,N
1625690355.7,286047001.2,N
1625690375.5,286047000.6,N
1625690395.4,286047000.6,N
1625690415.2,286046998.1,N
1625690435.0,286047000.9,N
1625690436.0,286047000.9,N
1625690455.8,286047001.2,N
1625690475.6,286046998.7,N
1625690495.5,286046998.8,N
1625690515.3,286046998.5,N
1625690535.2,286047001.2,N
1625690555.9,286046998.2,N
1625690575.7,286047000.6,N
1625690595.6,286047001.0,N
1625690615.4,286047002.6,N
1625690635.2,286047002.0,N
1625690655.1,286047001.9,N
1625690656.0,286047001.9,N
1625690675.8,286047001.5,N
1625690695.7,286047001.6,N
1625690715.5,286047000.2,N
1625690735.3,286047000.2,N
1625690755.2,286047001.1,N
1625690775.0,286047000.3,N
1625690775.9,286047000.3,N
1625690795.7,286047000.6,N
1625690815.6,286047000.6,N
1625690835.4,286047000.9,N
1625690855.3,286046998.1,N
1625690875.1,286046998.9,N
1625690895.8,286047001.2,N
1625690915.7,286047001.2,N
1625690935.5,286047001.2,N
1625690955.3,286046999.9,N
1625690975.2,286046999.8,N
1625690995.0,286047000.2,N
1625690995.9,286047000.2,N
1625691015.8,286047000.2,N
1625691035.6,286047002.8,N
1625691055.4,286047000.3,N
1625691075.3,286047000.2,N
1625691095.1,286047000.1,N
1625691115.9,286047001.0,N
1625691135.7,286047000.3,N
1625691155.5,286047000.5,N
1625691175.4,286047000.9,N
1625691195.2,286047000.7,N
1625691215.0,286047000.4,N
1625691215.9,286047000.4,N
1625691235.8,286047000.4,N
1625691255.6,286047000.0,N
1625691275.5,286046998.1,N
1625691295.3,286047000.8,N
1625691315.1,286047000.9,N
1625691335.9,286047000.9,N
1625691355.7,286047000.0,N
1625691375.5,286047002.8,Y
1625691395.4,286047000.4,P
1625691415.2,286047000.4,P
1625691435.1,286046998.1,P
1625691436.0,286046998.1,N
1625691455.8,286047000.7,N
1625691475.6,286047001.2,N
1625691495.5,286047000.5,N
1625691515.3,286047001.1,N
1625691535.1,286047001.0,N
1625691555.9,286047000.9,N
1625691575.7,286047000.6,N
1625691595.5,286047000.0,N
